| time (UTC) | temp F | wind direction | speed MPH | gust MPH | rain 1hr in | rain 24hr in | rain mn in | humidity % | barometer mb |
| 20260506170543 | 67 | 78 | 9.0 | 13.0 | 0.00 | 0.00 | 0.00 | 56 | 1012.0 |
| 20260506170043 | 67 | 73 | 10.0 | 15.0 | 0.00 | 0.00 | 0.00 | 58 | 1011.0 |
| 20260506165542 | 68 | 110 | 8.0 | 10.0 | 0.00 | 0.00 | 0.00 | 58 | 1012.0 |
| 20260506165042 | 67 | 108 | 11.0 | 14.0 | 0.00 | 0.00 | 0.00 | 59 | 1012.0 |
| 20260506164543 | 67 | 101 | 11.0 | 15.0 | 0.00 | 0.00 | 0.00 | 56 | 1012.0 |
| 20260506164043 | 69 | 107 | 9.0 | 16.0 | 0.00 | 0.00 | 0.00 | 50 | 1012.0 |
| 20260506163542 | 68 | 97 | 9.0 | 11.0 | 0.00 | 0.00 | 0.00 | 54 | 1012.0 |
| 20260506163043 | 68 | 55 | 8.0 | 17.0 | 0.00 | 0.00 | 0.00 | 54 | 1012.0 |
| 20260506162545 | 69 | 110 | 11.0 | 11.0 | 0.00 | 0.00 | 0.00 | 46 | 1012.0 |
| 20260506162042 | 69 | 105 | 4.0 | 10.0 | 0.00 | 0.00 | 0.00 | 45 | 1012.0 |
| 20260506161543 | 70 | 51 | 6.0 | 11.0 | 0.00 | 0.00 | 0.00 | 44 | 1012.0 |
| 20260506161043 | 69 | 26 | 5.0 | 11.0 | 0.00 | 0.00 | 0.00 | 46 | 1012.0 |
| 20260506160545 | 69 | 103 | 8.0 | 11.0 | 0.00 | 0.00 | 0.00 | 44 | 1012.0 |
| 20260506160043 | 69 | 49 | 9.0 | 11.0 | 0.00 | 0.00 | 0.00 | 46 | 1011.0 |
| 20260506155542 | 69 | 64 | 5.0 | 9.0 | 0.00 | 0.00 | 0.00 | 43 | 1012.0 |
| 20260506155043 | 69 | 110 | 7.0 | 9.0 | 0.00 | 0.00 | 0.00 | 43 | 1012.0 |
| 20260506154542 | 69 | 67 | 3.0 | 10.0 | 0.00 | 0.00 | 0.00 | 46 | 1011.0 |
| 20260506154043 | 69 | 77 | 5.0 | 14.0 | 0.00 | 0.00 | 0.00 | 48 | 1011.0 |
| 20260506153542 | 70 | 62 | 7.0 | 9.0 | 0.00 | 0.00 | 0.00 | 42 | 1012.0 |
| 20260506153043 | 71 | 18 | 3.0 | 6.0 | 0.00 | 0.00 | 0.00 | 42 | 1011.0 |
| 20260506152543 | 69 | 66 | 6.0 | 12.0 | 0.00 | 0.00 | 0.00 | 44 | 1012.0 |
| 20260506152043 | 69 | 55 | 7.0 | 11.0 | 0.00 | 0.00 | 0.00 | 46 | 1012.0 |
| 20260506151542 | 68 | 77 | 3.0 | 11.0 | 0.00 | 0.00 | 0.00 | 48 | 1012.0 |
| 20260506151043 | 68 | 98 | 3.0 | 9.0 | 0.00 | 0.00 | 0.00 | 46 | 1012.0 |
| 20260506150545 | 68 | 119 | 9.0 | 13.0 | 0.00 | 0.00 | 0.00 | 45 | 1012.0 |
| 20260506150045 | 69 | 111 | 6.0 | 7.0 | 0.00 | 0.00 | 0.00 | 44 | 1012.0 |
| 20260506145542 | 68 | 70 | 7.0 | 14.0 | 0.00 | 0.00 | 0.00 | 45 | 1012.0 |
| 20260506145043 | 69 | 106 | 14.0 | 14.0 | 0.00 | 0.00 | 0.00 | 45 | 1012.0 |
| 20260506144542 | 69 | 111 | 9.0 | 14.0 | 0.00 | 0.00 | 0.00 | 45 | 1012.0 |
| 20260506144042 | 68 | 63 | 6.0 | 16.0 | 0.00 | 0.00 | 0.00 | 46 | 1012.0 |
| 20260506143543 | 68 | 7 | 2.0 | 9.0 | 0.00 | 0.00 | 0.00 | 45 | 1012.0 |
| 20260506143044 | 67 | 99 | 7.0 | 12.0 | 0.00 | 0.00 | 0.00 | 46 | 1012.0 |
| 20260506142542 | 67 | 112 | 10.0 | 12.0 | 0.00 | 0.00 | 0.00 | 47 | 1012.0 |
| 20260506142043 | 67 | 115 | 6.0 | 7.0 | 0.00 | 0.00 | 0.00 | 48 | 1012.0 |
| 20260506141543 | 68 | 60 | 8.0 | 10.0 | 0.00 | 0.00 | 0.00 | 49 | 1012.0 |
| 20260506141043 | 67 | 91 | 4.0 | 14.0 | 0.00 | 0.00 | 0.00 | 51 | 1012.0 |
| 20260506140542 | 68 | 54 | 14.0 | 16.0 | 0.00 | 0.00 | 0.00 | 49 | 1013.0 |
| 20260506140044 | 68 | 8 | 5.0 | 11.0 | 0.00 | 0.00 | 0.00 | 47 | 1012.0 |
| 20260506135543 | 68 | 33 | 11.0 | 19.0 | 0.00 | 0.00 | 0.00 | 49 | 1012.0 |
| 20260506135043 | 69 | 66 | 14.0 | 19.0 | 0.00 | 0.00 | 0.00 | 48 | 1012.0 |
| 20260506134542 | 71 | 105 | 3.0 | 5.0 | 0.00 | 0.00 | 0.00 | 46 | 1012.0 |
| 20260506134042 | 72 | 260 | 2.0 | 7.0 | 0.00 | 0.00 | 0.00 | 40 | 1012.0 |
| 20260506133544 | 72 | 182 | 4.0 | 5.0 | 0.00 | 0.00 | 0.00 | 35 | 1012.0 |
| 20260506133042 | 72 | 194 | 4.0 | 5.0 | 0.00 | 0.00 | 0.00 | 36 | 1012.0 |
| 20260506132543 | 71 | 142 | 2.0 | 7.0 | 0.00 | 0.00 | 0.00 | 37 | 1012.0 |
| 20260506132044 | 71 | 146 | 3.0 | 10.0 | 0.00 | 0.00 | 0.00 | 37 | 1012.0 |
| 20260506131543 | 70 | 32 | 6.0 | 10.0 | 0.00 | 0.00 | 0.00 | 37 | 1013.0 |
| 20260506131042 | 70 | 218 | 3.0 | 9.0 | 0.00 | 0.00 | 0.00 | 37 | 1013.0 |
| 20260506130544 | 70 | 146 | 5.0 | 13.0 | 0.00 | 0.00 | 0.00 | 35 | 1013.0 |
| 20260506130042 | 70 | 207 | 4.0 | 11.0 | 0.00 | 0.00 | 0.00 | 36 | 1013.0 |
| 20260506125543 | 70 | 155 | 10.0 | 15.0 | 0.00 | 0.00 | 0.00 | 38 | 1013.0 |
| 20260506125043 | 70 | 202 | 5.0 | 10.0 | 0.00 | 0.00 | 0.00 | 38 | 1013.0 |
| 20260506124542 | 69 | 146 | 6.0 | 11.0 | 0.00 | 0.00 | 0.00 | 39 | 1013.0 |
| 20260506124042 | 69 | 183 | 5.0 | 11.0 | 0.00 | 0.00 | 0.00 | 39 | 1013.0 |
| 20260506123542 | 69 | 186 | 10.0 | 13.0 | 0.00 | 0.00 | 0.00 | 39 | 1013.0 |
| 20260506123043 | 69 | 147 | 9.0 | 15.0 | 0.00 | 0.00 | 0.00 | 37 | 1013.0 |
| 20260506122543 | 68 | 108 | 1.0 | 10.0 | 0.00 | 0.00 | 0.00 | 39 | 1013.0 |
| 20260506122042 | 70 | 162 | 12.0 | 13.0 | 0.00 | 0.00 | 0.00 | 37 | 1013.0 |
| 20260506121542 | 68 | 136 | 5.0 | 8.0 | 0.00 | 0.00 | 0.00 | 40 | 1013.0 |
| 20260506121043 | 68 | 136 | 2.0 | 9.0 | 0.00 | 0.00 | 0.00 | 40 | 1013.0 |
| 20260506120544 | 68 | 230 | 4.0 | 10.0 | 0.00 | 0.00 | 0.00 | 40 | 1013.0 |
| 20260506120044 | 69 | 147 | 6.0 | 10.0 | 0.00 | 0.00 | 0.00 | 39 | 1013.0 |
| 20260506115543 | 68 | 179 | 10.0 | 14.0 | 0.00 | 0.00 | 0.00 | 38 | 1013.0 |
| 20260506115043 | 68 | 139 | 6.0 | 8.0 | 0.00 | 0.00 | 0.00 | 39 | 1013.0 |
| 20260506114543 | 68 | 169 | 5.0 | 16.0 | 0.00 | 0.00 | 0.00 | 39 | 1013.0 |
| 20260506114043 | 67 | 147 | 3.0 | 7.0 | 0.00 | 0.00 | 0.00 | 41 | 1013.0 |
| 20260506113542 | 68 | 311 | 4.0 | 5.0 | 0.00 | 0.00 | 0.00 | 41 | 1013.0 |
| 20260506113043 | 68 | 165 | 5.0 | 7.0 | 0.00 | 0.00 | 0.00 | 40 | 1013.0 |
| 20260506112542 | 67 | 121 | 4.0 | 11.0 | 0.00 | 0.00 | 0.00 | 41 | 1013.0 |
| 20260506112042 | 68 | 202 | 4.0 | 7.0 | 0.00 | 0.00 | 0.00 | 40 | 1013.0 |
| 20260506111542 | 67 | 233 | 3.0 | 9.0 | 0.00 | 0.00 | 0.00 | 41 | 1013.0 |
| 20260506111042 | 67 | 158 | 7.0 | 13.0 | 0.00 | 0.00 | 0.00 | 41 | 1013.0 |
| 20260506110542 | 67 | 236 | 9.0 | 9.0 | 0.00 | 0.00 | 0.00 | 41 | 1014.0 |
| 20260506110043 | 66 | 216 | 5.0 | 6.0 | 0.00 | 0.00 | 0.00 | 42 | 1013.0 |
| 20260506105543 | 66 | 133 | 3.0 | 7.0 | 0.00 | 0.00 | 0.00 | 43 | 1013.0 |
| 20260506105042 | 66 | 126 | 4.0 | 5.0 | 0.00 | 0.00 | 0.00 | 46 | 1013.0 |
| 20260506104542 | 67 | 291 | 3.0 | 7.0 | 0.00 | 0.00 | 0.00 | 45 | 1013.0 |
| 20260506104045 | 67 | 59 | 5.0 | 8.0 | 0.00 | 0.00 | 0.00 | 45 | 1013.0 |
| 20260506103542 | 66 | 13 | 4.0 | 9.0 | 0.00 | 0.00 | 0.00 | 47 | 1013.0 |
| 20260506103043 | 66 | 73 | 2.0 | 8.0 | 0.00 | 0.00 | 0.00 | 47 | 1014.0 |
| 20260506102543 | 66 | 57 | 1.0 | 3.0 | 0.00 | 0.00 | 0.00 | 46 | 1014.0 |
| 20260506102042 | 66 | 120 | 3.0 | 11.0 | 0.00 | 0.00 | 0.00 | 45 | 1014.0 |
| 20260506101542 | 66 | 348 | 4.0 | 4.0 | 0.00 | 0.00 | 0.00 | 45 | 1013.0 |
| 20260506101042 | 66 | 306 | 7.0 | 9.0 | 0.00 | 0.00 | 0.00 | 45 | 1014.0 |
| 20260506100542 | 66 | 56 | 3.0 | 7.0 | 0.00 | 0.00 | 0.00 | 45 | 1014.0 |
| 20260506100051 | 65 | 79 | 3.0 | 14.0 | 0.00 | 0.00 | 0.00 | 44 | 1014.0 |
| 20260506095543 | 65 | 73 | 4.0 | 9.0 | 0.00 | 0.00 | 0.00 | 46 | 1014.0 |
| 20260506095043 | 65 | 338 | 8.0 | 17.0 | 0.00 | 0.00 | 0.00 | 46 | 1014.0 |
| 20260506094542 | 66 | 62 | 9.0 | 22.0 | 0.00 | 0.00 | 0.00 | 43 | 1013.0 |
| 20260506094042 | 65 | 184 | 6.0 | 11.0 | 0.00 | 0.00 | 0.00 | 44 | 1014.0 |
| 20260506093543 | 65 | 191 | 5.0 | 7.0 | 0.00 | 0.00 | 0.00 | 42 | 1014.0 |
| 20260506093042 | 65 | 211 | 9.0 | 11.0 | 0.00 | 0.00 | 0.00 | 44 | 1014.0 |
| 20260506092545 | 65 | 225 | 2.0 | 8.0 | 0.00 | 0.00 | 0.00 | 43 | 1014.0 |
| 20260506092042 | 65 | 164 | 7.0 | 9.0 | 0.00 | 0.00 | 0.00 | 45 | 1014.0 |
| 20260506091543 | 64 | 349 | 0.0 | 9.0 | 0.00 | 0.00 | 0.00 | 45 | 1014.0 |
| 20260506091043 | 64 | 229 | 4.0 | 12.0 | 0.00 | 0.00 | 0.00 | 44 | 1014.0 |
| 20260506090542 | 64 | 213 | 7.0 | 8.0 | 0.00 | 0.00 | 0.00 | 45 | 1014.0 |
| 20260506090042 | 64 | 149 | 8.0 | 11.0 | 0.00 | 0.00 | 0.00 | 45 | 1014.0 |
| 20260506085542 | 64 | 230 | 11.0 | 14.0 | 0.00 | 0.00 | 0.00 | 45 | 1013.0 |
| 20260506085042 | 64 | 190 | 4.0 | 14.0 | 0.00 | 0.00 | 0.00 | 46 | 1014.0 |
| 20260506084543 | 63 | 242 | 4.0 | 15.0 | 0.00 | 0.00 | 0.00 | 48 | 1013.0 |
| 20260506084043 | 63 | 152 | 14.0 | 18.0 | 0.00 | 0.00 | 0.00 | 47 | 1013.0 |
| 20260506083543 | 63 | 157 | 9.0 | 13.0 | 0.00 | 0.00 | 0.00 | 48 | 1014.0 |
| 20260506083043 | 62 | 239 | 3.0 | 12.0 | 0.00 | 0.00 | 0.00 | 48 | 1014.0 |
| 20260506082543 | 62 | 154 | 5.0 | 15.0 | 0.00 | 0.00 | 0.00 | 49 | 1013.0 |
| 20260506082042 | 62 | 218 | 5.0 | 9.0 | 0.00 | 0.00 | 0.00 | 50 | 1013.0 |
| 20260506081543 | 62 | 249 | 4.0 | 11.0 | 0.00 | 0.00 | 0.00 | 51 | 1013.0 |
| 20260506081043 | 61 | 166 | 1.0 | 9.0 | 0.00 | 0.00 | 0.00 | 52 | 1013.0 |
| 20260506080543 | 61 | 184 | 5.0 | 13.0 | 0.00 | 0.00 | 0.00 | 52 | 1014.0 |
| 20260506073043 | 60 | 173 | 8.0 | 12.0 | 0.00 | 0.00 | 0.00 | 53 | 1013.0 |
| 20260506072543 | 61 | 321 | 2.0 | 5.0 | 0.00 | 0.00 | 0.00 | 54 | 1013.0 |
| 20260506072042 | 59 | 6 | 1.0 | 3.0 | 0.00 | 0.00 | 0.00 | 56 | 1013.0 |
| 20260506071542 | 59 | 98 | 4.0 | 5.0 | 0.00 | 0.00 | 0.00 | 55 | 1013.0 |
| 20260506071044 | 59 | 261 | 1.0 | 4.0 | 0.00 | 0.00 | 0.00 | 56 | 1013.0 |
| 20260506070542 | 59 | 331 | 3.0 | 6.0 | 0.00 | 0.00 | 0.00 | 57 | 1013.0 |
| 20260506062043 | 57 | 124 | 3.0 | 6.0 | 0.00 | 0.00 | 0.00 | 60 | 1013.0 |
| 20260506061543 | 57 | 42 | 2.0 | 2.0 | 0.00 | 0.00 | 0.00 | 60 | 1013.0 |
| 20260506061043 | 57 | 171 | 3.0 | 4.0 | 0.00 | 0.00 | 0.00 | 60 | 1013.0 |
| 20260506060543 | 57 | 147 | 0.0 | 4.0 | 0.00 | 0.00 | 0.00 | 60 | 1013.0 |
| 20260506051043 | 54 | 109 | 3.0 | 9.0 | 0.00 | 0.00 | 0.00 | 66 | 1013.0 |
| 20260506050542 | 55 | 152 | 7.0 | 8.0 | 0.00 | 0.00 | 0.00 | 65 | 1013.0 |
| 20260506045042 | 54 | 108 | 5.0 | 6.0 | 0.00 | 0.00 | 0.00 | 67 | 1013.0 |
| 20260506044542 | 54 | 138 | 5.0 | 6.0 | 0.00 | 0.00 | 0.00 | 65 | 1013.0 |
| 20260506044042 | 54 | 154 | 3.0 | 8.0 | 0.00 | 0.00 | 0.00 | 65 | 1013.0 |
| 20260506043542 | 54 | 281 | 1.0 | 5.0 | 0.00 | 0.00 | 0.00 | 67 | 1012.0 |
| 20260506043045 | 53 | 147 | 3.0 | 10.0 | 0.00 | 0.00 | 0.00 | 68 | 1013.0 |
| 20260506042543 | 53 | 183 | 3.0 | 7.0 | 0.00 | 0.00 | 0.00 | 69 | 1012.0 |
| 20260506042042 | 53 | 172 | 2.0 | 4.0 | 0.00 | 0.00 | 0.00 | 70 | 1013.0 |
| 20260506041543 | 53 | 167 | 1.0 | 3.0 | 0.00 | 0.00 | 0.00 | 70 | 1013.0 |
| 20260506041043 | 53 | 209 | 3.0 | 3.0 | 0.00 | 0.00 | 0.00 | 71 | 1013.0 |
| 20260506040543 | 53 | 154 | 2.0 | 3.0 | 0.00 | 0.00 | 0.00 | 71 | 1013.0 |
| 20260506040042 | 53 | 115 | 0.0 | 2.0 | 0.00 | 0.00 | 0.00 | 71 | 1013.0 |
| 20260506035542 | 53 | 110 | 3.0 | 3.0 | 0.00 | 0.00 | 0.00 | 71 | 1013.0 |
| 20260506035042 | 54 | 143 | 3.0 | 3.0 | 0.00 | 0.00 | 0.00 | 70 | 1013.0 |
| 20260506034543 | 54 | 187 | 2.0 | 3.0 | 0.00 | 0.00 | 0.00 | 70 | 1013.0 |
| 20260506034043 | 54 | 146 | 3.0 | 4.0 | 0.00 | 0.00 | 0.00 | 70 | 1013.0 |
| 20260506033542 | 54 | 112 | 2.0 | 4.0 | 0.00 | 0.00 | 0.00 | 70 | 1013.0 |
| 20260506033044 | 54 | 138 | 4.0 | 4.0 | 0.00 | 0.00 | 0.00 | 69 | 1012.0 |
| 20260506032544 | 54 | 141 | 4.0 | 5.0 | 0.00 | 0.00 | 0.00 | 69 | 1013.0 |
| 20260506032042 | 55 | 145 | 4.0 | 5.0 | 0.00 | 0.00 | 0.00 | 69 | 1013.0 |
| 20260506031542 | 55 | 141 | 6.0 | 7.0 | 0.00 | 0.00 | 0.00 | 68 | 1013.0 |
| 20260506031042 | 55 | 147 | 7.0 | 7.0 | 0.00 | 0.00 | 0.00 | 68 | 1013.0 |
| 20260506030542 | 55 | 168 | 4.0 | 5.0 | 0.00 | 0.00 | 0.00 | 68 | 1012.0 |
| 20260506030043 | 55 | 157 | 0.0 | 5.0 | 0.00 | 0.00 | 0.00 | 68 | 1012.0 |
| 20260506025542 | 55 | 120 | 1.0 | 2.0 | 0.00 | 0.00 | 0.00 | 68 | 1012.0 |
| 20260506025042 | 55 | 121 | 3.0 | 4.0 | 0.00 | 0.00 | 0.00 | 68 | 1012.0 |
| 20260506024542 | 55 | 165 | 7.0 | 7.0 | 0.00 | 0.00 | 0.00 | 68 | 1013.0 |
| 20260506024043 | 55 | 156 | 3.0 | 8.0 | 0.00 | 0.00 | 0.00 | 68 | 1012.0 |
| 20260506023542 | 55 | 169 | 4.0 | 10.0 | 0.00 | 0.00 | 0.00 | 68 | 1012.0 |
| 20260506023043 | 55 | 192 | 5.0 | 10.0 | 0.00 | 0.00 | 0.00 | 69 | 1012.0 |
| 20260506022542 | 55 | 190 | 6.0 | 14.0 | 0.00 | 0.00 | 0.00 | 69 | 1012.0 |
| 20260506022042 | 55 | 184 | 3.0 | 10.0 | 0.00 | 0.00 | 0.00 | 69 | 1012.0 |
| 20260506021543 | 55 | 172 | 4.0 | 11.0 | 0.00 | 0.00 | 0.00 | 68 | 1012.0 |
| 20260506021043 | 55 | 195 | 3.0 | 11.0 | 0.00 | 0.00 | 0.00 | 67 | 1012.0 |
| 20260506020542 | 55 | 164 | 7.0 | 10.0 | 0.00 | 0.00 | 0.00 | 67 | 1012.0 |
| 20260506020043 | 56 | 168 | 4.0 | 11.0 | 0.00 | 0.00 | 0.00 | 65 | 1012.0 |
| 20260506015542 | 56 | 189 | 5.0 | 7.0 | 0.00 | 0.00 | 0.00 | 64 | 1012.0 |
| 20260506015042 | 56 | 127 | 4.0 | 8.0 | 0.00 | 0.00 | 0.00 | 63 | 1012.0 |
| 20260506014542 | 57 | 186 | 10.0 | 12.0 | 0.00 | 0.00 | 0.00 | 62 | 1012.0 |
| 20260506014042 | 57 | 209 | 10.0 | 13.0 | 0.00 | 0.00 | 0.00 | 62 | 1012.0 |
| 20260506013542 | 57 | 221 | 8.0 | 13.0 | 0.00 | 0.00 | 0.00 | 63 | 1012.0 |
| 20260506013042 | 56 | 219 | 6.0 | 12.0 | 0.00 | 0.00 | 0.00 | 64 | 1012.0 |
| 20260506012542 | 56 | 206 | 5.0 | 9.0 | 0.00 | 0.00 | 0.00 | 65 | 1012.0 |
| 20260506012042 | 56 | 138 | 3.0 | 5.0 | 0.00 | 0.00 | 0.00 | 65 | 1012.0 |
| 20260506011542 | 56 | 220 | 3.0 | 6.0 | 0.00 | 0.00 | 0.00 | 66 | 1012.0 |
| 20260506011043 | 56 | 353 | 0.0 | 5.0 | 0.00 | 0.00 | 0.00 | 66 | 1012.0 |
| 20260506010542 | 57 | 197 | 4.0 | 7.0 | 0.00 | 0.00 | 0.00 | 66 | 1012.0 |
| 20260506010044 | 57 | 115 | 5.0 | 7.0 | 0.00 | 0.00 | 0.00 | 65 | 1012.0 |
| 20260506005543 | 57 | 197 | 6.0 | 8.0 | 0.00 | 0.00 | 0.00 | 66 | 1012.0 |
| 20260506005043 | 57 | 168 | 3.0 | 5.0 | 0.00 | 0.00 | 0.00 | 66 | 1012.0 |
| 20260506004543 | 57 | 220 | 2.0 | 11.0 | 0.00 | 0.00 | 0.00 | 66 | 1012.0 |
| 20260506004042 | 57 | 122 | 2.0 | 11.0 | 0.00 | 0.00 | 0.00 | 66 | 1012.0 |
| 20260506003543 | 57 | 158 | 7.0 | 16.0 | 0.00 | 0.00 | 0.00 | 66 | 1012.0 |
| 20260506003042 | 57 | 165 | 4.0 | 11.0 | 0.00 | 0.00 | 0.00 | 65 | 1013.0 |
| 20260506002542 | 57 | 198 | 4.0 | 10.0 | 0.00 | 0.00 | 0.00 | 64 | 1012.0 |
| 20260506002042 | 57 | 169 | 6.0 | 6.0 | 0.00 | 0.00 | 0.00 | 63 | 1013.0 |
| 20260506001542 | 58 | 193 | 8.0 | 15.0 | 0.00 | 0.00 | 0.00 | 62 | 1013.0 |
| 20260506001042 | 58 | 163 | 6.0 | 9.0 | 0.00 | 0.00 | 0.00 | 61 | 1012.0 |
| 20260506000543 | 58 | 288 | 2.0 | 8.0 | 0.00 | 0.00 | 0.00 | 61 | 1013.0 |
| 20260506000043 | 58 | 171 | 6.0 | 6.0 | 0.00 | 0.00 | 0.22 | 60 | 1013.0 |
| 20260505235542 | 58 | 242 | 3.0 | 12.0 | 0.00 | 0.00 | 0.22 | 58 | 1013.0 |
| 20260505235042 | 59 | 166 | 3.0 | 11.0 | 0.00 | 0.00 | 0.22 | 57 | 1013.0 |
| 20260505234542 | 59 | 230 | 3.0 | 9.0 | 0.00 | 0.00 | 0.22 | 56 | 1013.0 |
| 20260505234043 | 59 | 185 | 13.0 | 16.0 | 0.00 | 0.00 | 0.22 | 56 | 1013.0 |
| 20260505233542 | 59 | 183 | 5.0 | 17.0 | 0.00 | 0.00 | 0.22 | 55 | 1013.0 |
| 20260505233042 | 59 | 196 | 3.0 | 14.0 | 0.00 | 0.00 | 0.22 | 55 | 1013.0 |
| 20260505232542 | 58 | 182 | 6.0 | 11.0 | 0.00 | 0.00 | 0.22 | 58 | 1012.0 |
| 20260505232043 | 57 | 296 | 2.0 | 5.0 | 0.00 | 0.00 | 0.22 | 60 | 1013.0 |
| 20260505231543 | 57 | 130 | 3.0 | 4.0 | 0.00 | 0.00 | 0.22 | 61 | 1013.0 |
| 20260505231042 | 57 | 268 | 3.0 | 7.0 | 0.00 | 0.00 | 0.22 | 61 | 1012.0 |
| 20260505230542 | 57 | 168 | 5.0 | 9.0 | 0.00 | 0.00 | 0.22 | 61 | 1012.0 |
| 20260505230043 | 57 | 116 | 4.0 | 9.0 | 0.00 | 0.00 | 0.22 | 61 | 1012.0 |
| 20260505225543 | 58 | 154 | 3.0 | 5.0 | 0.00 | 0.00 | 0.22 | 59 | 1012.0 |
| 20260505225042 | 58 | 171 | 2.0 | 6.0 | 0.00 | 0.00 | 0.22 | 59 | 1012.0 |
| 20260505224543 | 58 | 161 | 0.0 | 5.0 | 0.00 | 0.00 | 0.22 | 59 | 1012.0 |
| 20260505224043 | 58 | 171 | 3.0 | 4.0 | 0.00 | 0.00 | 0.22 | 60 | 1012.0 |
| 20260505223544 | 58 | 200 | 3.0 | 3.0 | 0.00 | 0.00 | 0.22 | 60 | 1012.0 |
| 20260505223043 | 58 | 270 | 0.0 | 5.0 | 0.00 | 0.00 | 0.22 | 59 | 1012.0 |
| 20260505222546 | 59 | 180 | 3.0 | 3.0 | 0.00 | 0.00 | 0.22 | 58 | 1013.0 |
| 20260505222052 | 59 | 191 | 2.0 | 3.0 | 0.00 | 0.00 | 0.22 | 57 | 1013.0 |
| 20260505221542 | 60 | 145 | 4.0 | 5.0 | 0.00 | 0.00 | 0.22 | 55 | 1013.0 |
| 20260505221043 | 60 | 344 | 1.0 | 2.0 | 0.00 | 0.00 | 0.22 | 54 | 1013.0 |
| 20260505220542 | 60 | 202 | 3.0 | 3.0 | 0.00 | 0.00 | 0.22 | 54 | 1013.0 |
| 20260505220042 | 60 | 235 | 2.0 | 4.0 | 0.00 | 0.00 | 0.22 | 54 | 1013.0 |
| 20260505215542 | 60 | 324 | 3.0 | 7.0 | 0.00 | 0.00 | 0.22 | 56 | 1013.0 |
| 20260505215042 | 60 | 203 | 3.0 | 11.0 | 0.00 | 0.00 | 0.22 | 57 | 1013.0 |
| 20260505214542 | 59 | 251 | 6.0 | 17.0 | 0.00 | 0.00 | 0.22 | 61 | 1013.0 |
| 20260505214042 | 60 | 160 | 9.0 | 11.0 | 0.00 | 0.00 | 0.22 | 59 | 1013.0 |
| 20260505213542 | 59 | 186 | 3.0 | 8.0 | 0.00 | 0.00 | 0.22 | 64 | 1013.0 |
| 20260505213042 | 59 | 222 | 11.0 | 16.0 | 0.00 | 0.00 | 0.22 | 66 | 1013.0 |
| 20260505212543 | 59 | 355 | 4.0 | 17.0 | 0.00 | 0.00 | 0.22 | 68 | 1013.0 |
| 20260505212043 | 59 | 114 | 3.0 | 10.0 | 0.00 | 0.00 | 0.22 | 71 | 1014.0 |
| 20260505211542 | 59 | 224 | 7.0 | 15.0 | 0.00 | 0.00 | 0.22 | 78 | 1014.0 |
| 20260505211043 | 59 | 197 | 2.0 | 5.0 | 0.00 | 0.00 | 0.22 | 79 | 1014.0 |
| 20260505210542 | 59 | 154 | 1.0 | 5.0 | 0.00 | 0.00 | 0.22 | 79 | 1014.0 |
| 20260505210043 | 59 | 214 | 2.0 | 4.0 | 0.00 | 0.00 | 0.22 | 79 | 1013.0 |
| 20260505205542 | 59 | 200 | 3.0 | 5.0 | 0.00 | 0.00 | 0.22 | 78 | 1013.0 |
| 20260505205044 | 59 | 211 | 2.0 | 5.0 | 0.00 | 0.00 | 0.22 | 78 | 1013.0 |
| 20260505204542 | 59 | 227 | 2.0 | 6.0 | 0.00 | 0.00 | 0.22 | 78 | 1013.0 |
| 20260505204046 | 59 | 311 | 3.0 | 3.0 | 0.00 | 0.00 | 0.22 | 79 | 1013.0 |
| 20260505203543 | 59 | 330 | 0.0 | 4.0 | 0.00 | 0.00 | 0.22 | 80 | 1013.0 |
| 20260505203042 | 59 | 186 | 3.0 | 3.0 | 0.00 | 0.00 | 0.22 | 81 | 1013.0 |
| 20260505202543 | 59 | 186 | 2.0 | 3.0 | 0.00 | 0.00 | 0.22 | 82 | 1013.0 |
| 20260505202042 | 59 | 179 | 3.0 | 3.0 | 0.00 | 0.00 | 0.22 | 82 | 1013.0 |
| 20260505201542 | 59 | 149 | 2.0 | 5.0 | 0.00 | 0.00 | 0.22 | 83 | 1013.0 |
| 20260505201043 | 60 | 185 | 4.0 | 5.0 | 0.00 | 0.00 | 0.22 | 84 | 1013.0 |
| 20260505200544 | 60 | 123 | 2.0 | 4.0 | 0.00 | 0.00 | 0.22 | 84 | 1013.0 |
| 20260505200044 | 60 | 146 | 3.0 | 4.0 | 0.00 | 0.00 | 0.22 | 83 | 1012.0 |
| 20260505195542 | 60 | 146 | 2.0 | 5.0 | 0.00 | 0.00 | 0.22 | 82 | 1012.0 |
| 20260505195046 | 60 | 141 | 4.0 | 5.0 | 0.00 | 0.00 | 0.22 | 81 | 1012.0 |
| 20260505194542 | 60 | 136 | 3.0 | 3.0 | 0.00 | 0.00 | 0.22 | 80 | 1012.0 |
| 20260505194042 | 60 | 152 | 3.0 | 3.0 | 0.00 | 0.00 | 0.22 | 81 | 1012.0 |
| 20260505193543 | 60 | 156 | 1.0 | 1.0 | 0.00 | 0.00 | 0.22 | 81 | 1012.0 |
| 20260505193042 | 60 | 5 | 2.0 | 3.0 | 0.00 | 0.00 | 0.22 | 81 | 1012.0 |
| 20260505192542 | 60 | 347 | 4.0 | 5.0 | 0.00 | 0.00 | 0.22 | 81 | 1012.0 |
| 20260505192043 | 60 | 106 | 2.0 | 4.0 | 0.00 | 0.00 | 0.22 | 81 | 1012.0 |
| 20260505191542 | 60 | 84 | 3.0 | 4.0 | 0.00 | 0.00 | 0.22 | 81 | 1012.0 |
| 20260505191042 | 61 | 70 | 2.0 | 4.0 | 0.00 | 0.00 | 0.22 | 82 | 1012.0 |
| 20260505190543 | 61 | 93 | 1.0 | 3.0 | 0.00 | 0.00 | 0.22 | 81 | 1012.0 |
| 20260505190043 | 61 | 112 | 3.0 | 6.0 | 0.00 | 0.00 | 0.22 | 79 | 1012.0 |
| 20260505185542 | 62 | 113 | 2.0 | 4.0 | 0.00 | 0.00 | 0.22 | 78 | 1012.0 |
| 20260505185042 | 62 | 51 | 3.0 | 6.0 | 0.00 | 0.00 | 0.22 | 76 | 1012.0 |
| 20260505184543 | 62 | 107 | 2.0 | 5.0 | 0.00 | 0.00 | 0.22 | 72 | 1012.0 |
| 20260505184042 | 62 | 109 | 2.0 | 4.0 | 0.00 | 0.00 | 0.22 | 71 | 1012.0 |
| 20260505183543 | 62 | 82 | 4.0 | 5.0 | 0.00 | 0.00 | 0.22 | 73 | 1012.0 |
| 20260505183043 | 62 | 71 | 2.0 | 3.0 | 0.00 | 0.00 | 0.22 | 73 | 1012.0 |
| 20260505182545 | 62 | 41 | 2.0 | 2.0 | 0.00 | 0.00 | 0.22 | 73 | 1012.0 |
| 20260505182043 | 62 | 63 | 2.0 | 3.0 | 0.00 | 0.00 | 0.22 | 73 | 1012.0 |
| 20260505181542 | 62 | 58 | 2.0 | 3.0 | 0.00 | 0.00 | 0.22 | 72 | 1012.0 |
| 20260505181046 | 62 | 48 | 1.0 | 3.0 | 0.00 | 0.00 | 0.22 | 74 | 1012.0 |
| 20260505180543 | 62 | 74 | 2.0 | 4.0 | 0.00 | 0.00 | 0.22 | 74 | 1011.0 |
| 20260505180043 | 63 | 36 | 3.0 | 3.0 | 0.00 | 0.00 | 0.22 | 74 | 1012.0 |
| 20260505175543 | 63 | 319 | 0.0 | 2.0 | 0.00 | 0.00 | 0.22 | 73 | 1012.0 |
| 20260505175042 | 63 | 324 | 1.0 | 4.0 | 0.00 | 0.00 | 0.22 | 73 | 1012.0 |
| 20260505174545 | 63 | 25 | 5.0 | 5.0 | 0.00 | 0.00 | 0.22 | 73 | 1012.0 |
| 20260505174043 | 62 | 268 | 2.0 | 3.0 | 0.00 | 0.00 | 0.22 | 73 | 1012.0 |
| 20260505173542 | 63 | 332 | 3.0 | 5.0 | 0.00 | 0.00 | 0.22 | 73 | 1011.0 |
| 20260505173042 | 63 | 18 | 5.0 | 6.0 | 0.00 | 0.00 | 0.22 | 73 | 1012.0 |
| 20260505172545 | 63 | 303 | 4.0 | 7.0 | 0.00 | 0.00 | 0.22 | 71 | 1012.0 |
| 20260505172043 | 63 | 312 | 3.0 | 4.0 | 0.00 | 0.00 | 0.22 | 72 | 1012.0 |
| 20260505171542 | 63 | 47 | 2.0 | 4.0 | 0.00 | 0.00 | 0.22 | 72 | 1012.0 |
| 20260505171045 | 64 | 356 | 4.0 | 6.0 | 0.00 | 0.00 | 0.22 | 71 | 1012.0 |